Location: Nashville
(36.1660°N, 86.7840°W)
Time: 03:58:31
(UTC-05:00)

AO-92 - Pass Details

Date: 17 May 2022
Orbit: 472 x 481 km, 97.4° (Epoch: 26 June)

Event Time Altitude Azimuth Distance (km) Brightness Sun altitude
Exits shadow 22:11:59 16° 40° (NE) 1,321 ? -23.8°
Drops below altitude 10° 22:13:12 10° 22° (NNE) 1,653 ? -23.9°
Sets 22:15:38 0° 6° (N) 2,534 ? -24.2°
